Theta_e
322 323 324 319 307 307 304 306 311 309 309 313 314 312 317 323 322 318 344 350 352 352 353 351 351 353 354 355 355 354 355 355 356 356 356 356 355 355 356 355 355 358 358 358 356 355 355 355 353
318 320 320 314 305 301 304 309 307 310 312 314 313 314 318 317 329 337 339 348 352 354 353 352 351 352 353 354 355 354 356 356 355 356 356 356 355 355 355 355 354 356 359 359 355 355 355 353 350
320 321 312 309 305 301 304 309 309 311 313 312 311 318 320 319 332 337 342 347 348 351 354 351 350 350 351 352 354 354 355 354 354 355 356 356 356 355 355 354 354 356 359 359 355 356 354 349 347
320 317 314 304 302 308 308 310 311 311 313 314 314 314 320 333 334 340 342 345 347 355 356 349 349 349 350 351 352 354 354 353 353 353 355 356 356 355 355 353 354 356 358 358 357 356 352 347 346
320 315 306 305 306 309 311 312 312 310 311 312 313 312 313 320 327 332 338 343 347 352 357 352 349 350 350 350 351 351 351 352 352 353 354 355 355 354 353 353 353 355 356 358 356 355 352 347 345
312 314 304 302 305 309 311 313 312 311 312 312 312 313 313 321 321 326 331 340 349 352 358 356 351 350 350 350 349 348 348 350 351 352 353 354 354 353 352 352 352 353 354 354 354 353 352 350 346
309 309 305 306 307 308 310 314 310 311 311 310 314 310 315 317 322 325 328 330 333 343 352 360 357 353 349 347 347 347 347 348 348 349 350 352 351 351 352 351 351 351 351 352 352 351 349 350 348
311 309 305 307 303 305 311 312 313 312 310 316 316 310 309 317 324 329 328 326 328 338 338 338 346 354 358 353 345 346 346 346 347 347 347 347 349 350 350 350 350 350 350 350 348 348 349 348 346
314 303 302 305 305 307 311 309 313 316 313 314 315 315 315 319 321 322 324 323 325 327 332 337 339 341 341 351 353 346 347 347 346 346 345 343 347 349 350 349 348 348 346 347 347 347 345 345 345
307 303 305 308 309 308 309 309 310 309 311 311 313 316 316 317 318 318 317 318 321 323 327 330 332 332 340 344 351 356 355 351 350 350 350 348 349 349 347 346 344 344 344 345 345 345 343 343 348
308 302 307 308 308 309 308 308 309 306 304 308 308 311 313 313 316 316 316 318 319 322 324 323 324 326 331 335 343 344 349 354 354 353 352 353 353 352 350 350 347 346 344 347 344 345 345 345 345
304 307 307 307 308 306 305 308 306 307 307 310 310 311 311 312 314 315 314 316 317 318 318 318 320 322 325 329 328 331 335 341 348 347 347 349 348 349 347 348 347 345 345 345 345 344 344 343 342
305 305 306 307 307 307 307 305 305 306 309 310 310 310 311 312 313 314 315 315 315 314 315 315 317 318 322 324 324 323 326 329 332 333 333 335 341 343 345 345 345 343 343 343 342 343 343 343 343
306 307 306 308 307 307 304 304 305 306 309 308 309 309 312 311 311 312 312 312 313 313 313 314 314 315 317 320 321 320 322 322 325 324 323 326 328 328 329 334 342 341 340 341 341 340 340 341 342
306 302 304 304 305 303 305 300 301 306 308 307 307 309 310 310 310 309 311 311 312 312 311 311 312 312 315 315 319 317 317 319 320 320 320 322 322 323 325 328 331 334 336 334 333 336 338 338 339
302 301 296 303 304 304 302 295 304 307 307 305 307 308 310 308 308 309 310 311 311 311 311 310 310 310 313 315 316 317 315 315 317 316 317 319 320 321 321 324 329 332 330 332 332 332 333 333 334
299 294 296 299 304 303 301 298 304 307 306 305 305 307 309 307 307 308 309 310 310 309 309 308 309 308 309 312 316 315 314 315 315 314 314 316 316 317 318 320 322 323 325 328 330 329 330 330 331
294 295 297 297 301 301 299 298 302 305 305 304 306 308 308 306 305 307 308 308 308 309 309 308 308 308 309 308 310 313 313 313 312 313 313 314 314 313 312 312 313 313 314 315 316 317 320 322 324
299 298 296 299 302 300 298 298 301 304 304 304 306 307 307 306 307 307 308 308 308 308 307 307 307 307 307 307 306 306 307 310 309 308 309 310 310 309 309 308 308 309 309 310 311 311 311 312 316
298 296 296 299 301 300 298 297 301 303 303 305 306 306 306 305 306 305 306 307 306 305 306 306 305 306 305 305 307 308 308 310 309 309 308 308 308 308 305 305 305 304 306 306 307 308 306 308 311
298 296 296 295 299 300 298 295 298 302 304 306 306 307 306 305 304 304 304 303 303 303 303 303 303 304 303 303 305 305 307 308 306 306 306 307 306 306 304 303 303 302 303 303 303 304 303 302 306
294 300 298 296 295 289 298 288 297 300 301 303 303 303 304 304 303 303 302 301 302 302 304 303 304 302 302 302 300 300 300 298 301 302 301 304 305 303 302 301 301 300 301 300 300 302 301 303 300
296 300 297 297 294 293 292 289 293 299 298 300 302 303 304 304 303 300 300 301 301 302 302 303 303 301 301 301 299 298 297 297 298 298 298 298 299 300 299 298 299 298 298 298 299 299 300 301 301
300 297 296 296 293 286 291 290 291 295 299 301 303 304 303 301 300 300 300 302 300 301 301 301 300 299 299 298 298 296 295 295 295 294 294 294 295 295 295 295 296 296 296 296 296 298 298 299 300
298 293 286 284 284 284 294 291 293 299 303 304 303 303 303 301 299 299 300 299 299 299 298 298 298 297 297 296 295 294 294 294 293 292 292 291 292 292 293 293 293 294 295 295 295 295 297 297 297
295 293 287 280 282 286 294 288 293 301 303 305 305 304 303 300 300 300 299 299 298 297 295 296 296 295 294 294 294 293 293 292 293 292 292 291 291 291 292 293 293 293 294 294 295 295 295 294 295
294 290 296 289 290 286 288 293 299 301 301 301 302 303 300 299 299 298 298 298 297 295 294 294 294 294 293 293 293 292 293 292 291 292 291 291 291 291 291 292 292 293 293 293 293 292 291 292 291
296 298 289 291 281 279 285 288 289 295 297 299 300 300 299 299 298 298 299 297 296 295 294 294 293 292 293 293 292 292 292 292 292 291 290 291 290 290 290 290 291 291 291 292 291 291 291 290 290
292 291 293 293 289 282 280 288 301 299 299 298 300 302 300 298 297 298 298 297 296 295 293 293 292 292 292 292 292 292 292 292 291 290 290 290 290 290 290 291 290 289 289 290 291 290 290 289 289
296 293 293 287 285 289 287 287 302 302 301 301 301 302 301 299 298 299 299 296 295 294 293 291 292 292 292 292 292 292 292 292 291 291 290 291 290 290 290 290 289 287 286 287 288 289 290 289 288
Wind_Speed
16 15 10 10 6 9 17 6 9 7 6 10 7 6 19 18 17 6 9 7 10 14 12 10 8 8 8 9 10 11 10 10 10 9 8 7 7 8 8 8 9 7 8 9 7 6 6 6 6
10 16 8 6 9 12 3 9 8 13 8 4 5 6 18 17 15 16 12 11 13 13 10 10 8 7 7 8 8 9 10 10 10 10 9 8 8 8 8 8 8 9 9 8 8 7 7 7 6
12 15 7 6 11 14 7 15 12 11 2 2 3 17 10 5 13 13 9 11 13 11 12 12 10 6 5 7 7 6 7 8 9 9 9 9 9 9 8 8 8 8 7 9 9 8 8 7 6
6 6 7 8 15 4 11 11 8 5 4 3 9 16 13 12 11 12 11 15 11 14 13 9 8 5 4 5 4 4 3 4 7 8 9 9 10 10 9 9 9 9 9 9 9 8 8 8 6
8 7 10 14 18 12 7 10 7 5 7 8 3 19 17 14 13 12 13 12 10 10 12 10 8 5 4 3 2 3 2 4 5 6 7 7 8 9 9 9 9 9 8 9 9 8 8 8 7
7 10 11 15 5 12 7 8 1 1 2 7 4 12 16 13 11 10 7 9 11 9 9 9 9 7 3 2 2 3 5 6 8 9 9 9 9 9 9 9 9 10 9 9 9 8 8 8 8
11 10 15 18 2 7 7 7 2 3 2 11 4 1 14 14 8 5 5 12 10 9 8 6 9 8 7 6 5 5 4 5 7 8 9 10 10 10 11 11 11 11 10 10 10 10 9 9 9
9 10 17 18 8 10 13 6 7 5 11 2 4 5 11 8 7 3 5 9 10 8 7 6 8 4 8 8 11 9 7 5 5 6 7 7 7 8 9 10 11 12 12 11 10 10 10 10 11
10 7 13 14 8 12 5 4 7 4 4 4 2 14 11 5 8 8 6 10 9 9 9 13 13 14 11 7 8 8 8 7 6 6 8 6 5 7 10 11 11 14 12 12 11 11 11 10 10
9 10 6 11 11 9 8 2 7 2 6 3 6 13 8 5 9 8 9 10 13 11 14 15 15 15 15 11 3 8 9 8 9 9 8 7 7 7 9 11 17 14 15 14 11 12 11 9 7
9 13 6 6 10 9 5 3 2 3 5 3 4 7 5 5 11 10 12 14 12 13 13 17 15 15 15 12 11 9 8 6 7 11 10 7 5 3 3 3 3 5 7 6 8 8 7 11 9
8 12 5 3 5 3 4 6 6 6 7 9 5 6 3 12 12 10 10 12 11 13 15 15 13 12 12 9 10 10 10 11 9 5 2 1 1 3 5 3 4 4 5 7 9 7 10 12 12
9 14 4 5 3 4 6 9 9 10 3 6 4 3 10 13 11 13 11 13 11 12 12 12 12 12 11 8 8 8 10 9 10 10 12 11 9 6 5 4 4 5 6 6 7 8 8 9 10
5 9 10 7 9 8 10 11 12 9 9 6 7 3 15 13 12 11 12 10 10 10 10 9 9 10 10 10 8 6 7 8 8 9 10 11 8 7 6 6 6 5 6 7 8 10 10 10 11
7 11 13 15 13 9 3 13 19 10 9 9 7 10 15 11 11 10 8 8 8 8 9 10 11 12 9 9 6 6 6 6 7 8 11 11 9 8 6 5 5 3 4 5 6 7 7 10 11
10 14 13 14 18 8 6 11 8 14 12 11 5 7 15 11 11 9 8 8 10 10 11 10 10 11 11 5 5 4 4 6 6 7 7 9 9 8 8 5 4 3 4 3 3 4 6 5 6
14 12 19 10 15 13 13 7 16 15 12 9 6 1 13 10 10 7 8 9 11 11 10 10 10 12 10 11 4 5 8 6 5 5 7 8 9 10 9 7 8 10 5 4 4 6 5 6 7
15 20 16 17 16 9 11 12 13 9 13 11 4 6 10 8 7 5 6 8 9 9 9 9 9 10 8 7 8 5 4 5 7 6 6 9 7 12 11 9 11 10 9 10 10 10 8 7 7
18 12 13 10 10 15 14 13 14 16 16 10 8 8 8 7 7 5 5 7 8 10 11 11 10 11 9 6 7 6 6 3 4 6 11 11 10 11 10 8 8 9 8 8 9 9 11 8 8
21 17 15 15 14 14 8 13 16 18 15 10 9 10 7 8 9 7 5 8 8 9 10 10 11 11 10 9 7 5 2 3 3 4 6 9 10 9 9 9 8 10 7 8 8 9 8 6 9
15 15 15 17 14 5 8 17 20 19 12 11 4 7 8 5 4 7 8 8 6 6 7 8 10 11 11 12 8 8 6 5 6 6 6 6 8 8 9 10 9 9 8 6 8 8 9 8 8
18 17 17 17 12 13 13 12 12 10 14 13 12 11 10 9 6 7 6 5 5 7 7 7 7 10 10 10 10 11 9 6 7 8 9 8 9 9 11 11 10 9 8 8 7 7 7 7 8
16 9 7 6 11 15 16 13 13 19 17 18 17 15 11 9 6 8 5 4 7 6 6 7 7 10 9 9 9 7 8 6 6 7 9 11 10 13 13 12 10 10 8 9 9 8 7 5 6
12 5 6 8 10 13 15 15 11 12 15 21 20 16 14 10 9 7 5 5 5 6 7 6 7 10 10 9 10 10 10 9 8 9 7 6 7 7 10 12 10 9 9 9 9 8 9 7 7
12 8 5 9 9 11 13 16 13 3 13 17 20 17 15 13 10 8 7 6 5 8 7 6 8 9 10 9 9 9 9 9 8 8 7 8 6 7 8 9 9 8 9 9 10 9 8 8 7
18 18 7 9 10 13 8 7 5 9 14 14 18 17 16 13 9 8 6 5 5 10 7 7 8 9 9 8 8 7 8 6 6 7 6 5 6 6 9 9 8 8 8 8 8 6 7 7 7
18 22 14 14 11 7 8 9 9 11 11 11 13 16 15 13 11 9 7 5 5 8 7 7 7 8 7 7 6 7 6 7 6 8 7 6 7 8 9 9 9 9 9 9 8 6 7 8 9
19 14 13 6 6 10 12 14 9 16 13 12 12 14 14 13 13 12 10 9 8 6 8 6 5 6 6 6 5 5 6 7 6 6 7 8 7 8 8 9 10 10 10 11 10 8 10 10 7
12 15 9 9 10 4 7 4 3 10 13 14 13 13 14 14 14 12 9 9 8 8 8 6 5 5 5 6 5 5 5 6 6 6 6 6 7 7 8 8 9 11 12 13 10 9 7 8 9
16 18 15 7 10 7 9 14 13 13 13 13 13 15 16 14 14 12 12 11 10 7 7 7 5 4 4 5 4 5 5 6 6 5 6 4 5 6 8 10 11 12 13 13 13 10 11 11 11
Wind_Direction
291 269 240 265 245 227 254 221 85 87 115 35 20 13 72 43 37 57 58 54 95 106 116 126 110 110 118 135 145 148 151 148 146 147 155 162 162 158 155 154 155 152 159 156 150 150 138 127 125
297 297 268 275 256 272 328 96 102 62 47 83 145 164 78 58 40 63 59 56 82 101 120 128 126 129 126 131 143 149 157 155 155 154 163 171 172 171 170 174 177 175 172 169 165 166 150 135 142
259 264 285 231 243 261 41 62 66 88 151 82 132 46 36 32 48 75 69 71 77 110 107 117 128 130 134 127 133 151 164 166 167 163 169 176 178 178 180 186 193 196 187 178 183 175 147 152 156
294 254 235 253 273 31 54 72 50 114 122 29 87 94 73 59 51 71 50 56 64 88 93 98 106 104 100 109 117 129 162 179 180 172 177 184 187 184 187 189 198 204 201 199 197 181 163 167 172
252 270 262 259 259 103 69 65 11 38 37 31 319 100 82 46 67 48 53 54 40 56 106 110 108 91 70 66 84 116 146 178 188 186 192 193 197 194 190 195 201 210 213 211 205 197 183 185 190
275 228 264 257 88 82 79 75 310 11 170 78 36 109 95 64 37 79 65 79 67 47 80 118 127 131 135 145 171 188 185 183 188 194 199 197 200 203 201 206 211 212 214 219 218 212 204 202 207
257 277 270 292 90 130 111 82 196 316 213 69 24 312 90 63 56 37 71 93 72 47 41 53 129 164 176 192 204 216 220 212 204 207 209 209 204 204 206 203 210 220 224 226 224 216 212 212 213
269 276 276 271 282 83 93 150 81 265 74 133 4 2 58 37 51 11 79 94 90 94 83 40 13 15 166 191 201 199 204 225 227 222 231 235 228 226 221 214 212 215 221 226 230 224 217 208 213
263 264 251 283 157 99 118 170 122 59 276 114 58 68 63 16 48 22 7 62 56 43 27 41 17 4 347 311 183 182 202 214 232 237 229 211 228 224 221 217 228 209 217 221 225 219 225 215 217
226 219 320 10 33 90 120 293 67 342 168 201 168 98 69 33 48 21 24 33 34 18 29 26 18 5 354 339 40 190 187 190 198 207 200 198 223 225 238 216 206 203 204 214 218 222 218 212 222
238 247 43 94 23 9 351 134 252 248 267 292 48 18 49 52 59 28 24 32 21 17 31 19 6 4 355 349 351 358 330 198 199 205 197 191 202 235 258 290 206 216 208 223 218 225 222 218 217
257 269 289 335 101 309 277 309 301 299 297 47 63 58 265 60 54 41 29 39 18 28 28 12 5 3 350 3 5 357 356 350 350 343 283 206 240 270 271 264 262 220 232 227 242 215 225 220 222
228 263 227 244 201 241 272 265 275 265 118 80 89 202 68 59 42 42 25 41 20 26 29 13 6 0 351 26 6 9 2 8 9 29 24 17 19 1 337 321 312 296 267 253 237 239 234 231 224
302 312 291 215 234 233 242 254 240 229 132 160 180 148 82 67 49 35 25 27 24 31 20 17 14 8 0 360 19 19 16 10 22 30 31 28 28 7 359 355 1 9 4 345 311 277 255 240 235
269 262 250 238 233 229 141 251 239 192 154 193 202 123 97 79 64 48 27 29 46 43 24 15 9 4 1 3 10 31 23 20 27 28 31 20 18 1 352 346 338 349 344 334 336 328 323 298 277
254 243 253 249 192 148 179 283 159 138 173 207 222 124 110 89 70 50 33 35 30 38 27 33 21 6 347 23 7 21 35 31 34 34 28 11 19 2 350 333 307 339 330 312 309 310 311 299 296
226 253 221 211 170 151 195 275 134 166 189 220 244 237 111 111 93 54 38 25 39 34 30 27 29 14 2 355 15 43 12 24 39 42 36 11 15 13 354 345 6 354 336 329 349 347 328 318 312
224 218 246 263 173 194 203 232 263 252 206 200 161 123 119 120 93 81 49 34 48 38 41 34 28 21 13 11 360 7 59 34 20 15 30 27 24 21 12 5 9 4 356 359 355 348 339 324 312
265 292 284 266 172 186 213 245 271 272 259 150 183 173 133 123 123 111 83 75 52 43 28 28 30 25 13 16 22 360 359 48 41 22 21 16 32 28 23 4 2 9 358 352 348 346 340 335 331
242 255 259 265 271 271 284 270 267 264 253 167 182 136 155 157 159 123 91 70 54 36 23 29 26 24 16 357 1 352 350 41 43 93 50 34 16 34 17 3 5 358 347 355 353 349 336 322 6
242 250 254 262 269 229 248 261 261 254 223 124 144 126 133 162 137 132 98 63 40 41 30 25 25 17 25 1 8 359 346 3 22 18 31 24 39 26 30 2 3 358 355 354 356 346 352 329 331
243 242 253 250 270 262 264 277 277 134 161 162 167 159 169 161 155 100 81 83 61 55 51 35 31 44 25 21 11 5 3 8 1 11 0 3 26 28 28 7 359 357 351 353 346 348 338 337 327
250 297 262 247 249 268 255 266 248 239 180 183 177 173 158 144 119 112 126 111 85 58 46 38 38 55 38 28 22 13 12 3 348 9 350 9 1 12 18 360 359 357 354 344 345 342 342 329 325
255 170 243 249 257 252 247 247 261 250 204 174 181 164 151 143 138 146 140 120 93 75 56 41 33 55 40 25 25 18 8 8 2 1 2 0 1 7 11 359 350 358 351 344 339 341 335 328 325
194 188 213 222 216 245 239 237 229 133 131 172 148 144 147 154 154 164 147 129 90 82 53 34 42 51 41 35 28 22 14 11 13 14 5 3 6 4 1 353 356 355 346 347 342 337 346 355 355
215 201 202 220 228 252 256 230 250 89 93 113 138 145 137 145 156 155 138 118 102 87 59 40 34 51 41 30 30 32 28 18 25 19 12 11 12 6 2 355 349 357 353 355 353 1 4 360 7
201 218 242 271 285 283 262 262 153 125 123 131 137 137 144 150 165 157 152 142 123 89 78 55 35 48 45 40 35 36 34 38 28 34 16 23 18 14 7 1 357 9 11 14 12 13 12 20 14
248 202 213 231 234 232 247 253 272 165 162 160 163 152 152 161 167 173 171 152 118 111 103 88 65 54 51 51 43 52 42 40 36 40 29 30 25 16 14 7 6 19 15 18 20 13 18 20 20
210 234 205 207 235 267 280 276 70 149 170 181 178 173 162 171 174 178 159 151 131 131 118 106 90 78 68 59 50 54 53 49 45 39 38 32 31 17 12 17 24 26 17 15 17 18 22 25 26
214 213 218 218 233 240 255 259 137 161 182 186 196 185 164 177 181 177 174 154 142 133 120 116 118 97 94 104 70 58 54 54 55 51 48 25 49 29 17 22 32 27 23 16 1 19 22 26 22